Regional Weather Roundup
Issued by NWS

Home | Current Version | Previous Version | Graphics & Text | Print | Product List | Glossary Off
Versions: 1 2 3 4 5 6 7 8 9 10 11 12 13 14 15 16 17 18 19 20 21 22 23 24 25 26 27 28 29 30 31 32 33 34 35 36 37 38 39 40 41 42 43 44 45 46 47 48 49 50

022
ASUS43 KDTX 211201
RWRMI
MICHIGAN HOURLY REGIONAL WEATHER ROUNDUP
NATIONAL WEATHER SERVICE DETROIT/PONTIAC MI
800 AM EDT SAT APR 21 2018

NOTE: "FAIR" INDICATES FEW OR NO CLOUDS BELOW 12,000 FEET WITH NO
SIGNIFICANT WEATHER AND/OR OBSTRUCTION TO VISIBILITY.

MIZ047>049-052>055-059>063-066>070-074>076-081>083-211300-
SOUTHEAST LOWER MICHIGAN

CITY           SKY/WX    TMP DP  RH WIND       PRES   REMARKS
ADRIAN         FAIR      32  29  88 CALM      30.48R
6HR MIN TEMP:  28; 6HR MAX TEMP:  35;

ALMA           FAIR      33  32  94 CALM      30.47S
6HR MIN TEMP:  29; 6HR MAX TEMP:  38;

ANN ARBOR      FAIR      31  29  92 CALM      30.47R
BAD AXE        FAIR      34  27  77 CALM      30.49R
6HR MIN TEMP:  30; 6HR MAX TEMP:  34;

CARO           FAIR      32  26  80 CALM      30.47S
DETROIT CITY   FAIR      35  27  72 CALM      30.50R
6HR MIN TEMP:  29; 6HR MAX TEMP:  38;

DETROIT        PTSUNNY   38  28  67 CALM      30.49R
6HR MIN TEMP:  34; 6HR MAX TEMP:  40;

FLINT          FAIR      34  27  75 SE7       30.48R WCI  28
6HR MIN TEMP:  30; 6HR MAX TEMP:  38;

GROSSE ILE     FAIR      35  32  87 E3        30.49R
6HR MIN TEMP:  31; 6HR MAX TEMP:  36;

HILLSDALE      FAIR      37  27  65 S6        30.45R WCI  33
HOWELL         FAIR      34  31  88 SE5       30.46S WCI  30
6HR MIN TEMP:  30; 6HR MAX TEMP:  40;


CITY           SKY/WX    TMP DP  RH WIND       PRES   REMARKS
JACKSON        FAIR      35  27  72 CALM      30.46R
6HR MIN TEMP:  31; 6HR MAX TEMP:  39;

LAMBERTVILLE   FAIR      32  27  80 CALM      30.48S
6HR MIN TEMP:  31; 6HR MAX TEMP:  36;

LANSING        FAIR      38  27  64 SE6       30.46R WCI  33
6HR MIN TEMP:  35; 6HR MAX TEMP:  42;

LAPEER         FAIR      29  26  85 CALM      30.48R
6HR MIN TEMP:  28; 6HR MAX TEMP:  31;

MASON          FAIR      34  27  75 S3        30.46S
6HR MIN TEMP:  31; 6HR MAX TEMP:  38;

MONROE         FAIR      31  30  94 CALM      30.48R FOG
6HR MIN TEMP:  28; 6HR MAX TEMP:  32;

MT. CLEMENS    CLOUDY    32  30  90 CALM      30.48R
6HR MIN TEMP:  28; 6HR MAX TEMP:  33;

PONTIAC        CLOUDY    34  29  82 CALM      30.47R
6HR MIN TEMP:  29; 6HR MAX TEMP:  35;

PORT HOPE        N/A     34  27  75 SE3       30.47R
6HR MIN TEMP:  29; 6HR MAX TEMP:  34;

PORT HURON     FAIR      28  27  93 CALM      30.50S
TRI CITIES     FAIR      36  29  75 S3        30.48R
6HR MIN TEMP:  33; 6HR MAX TEMP:  36;

MIDLAND        FAIR      31  29  92 CALM      30.47R
6HR MIN TEMP:  28; 6HR MAX TEMP:  31;

TROY           FAIR      37  24  59 E5        30.50S WCI  33
SAGINAW HB     FAIR      34  28  80 S5        30.47R WCI  30
$$
MIZ043>046-050>051-056>058-064>065-071>073-077>080-211300-
SOUTHWEST LOWER MICHIGAN

CITY           SKY/WX    TMP DP  RH WIND       PRES   REMARKS
BATTLE CREEK   FAIR      38  28  67 S5        30.45R WCI  34
6HR MIN TEMP:  31; 6HR MAX TEMP:  39;

BENTON HARBOR  FAIR      32  25  75 CALM      30.45R
6HR MIN TEMP:  28; 6HR MAX TEMP:  32;

BIG RAPIDS     FAIR      29  24  79 CALM      30.46R
6HR MIN TEMP:  27; 6HR MAX TEMP:  31;

COLDWATER      FAIR      40  23  50 SE9       30.45S WCI  34
6HR MIN TEMP:  34; 6HR MAX TEMP:  40;

FREMONT        FAIR      31  21  66 CALM      30.46R
6HR MIN TEMP:  28; 6HR MAX TEMP:  34;

HOLLAND        FAIR      33  22  63 CALM      30.45R
6HR MIN TEMP:  31; 6HR MAX TEMP:  35;

GRAND RAPIDS   PTSUNNY   33  26  75 CALM      30.45R
6HR MIN TEMP:  30; 6HR MAX TEMP:  41;

IONIA          FAIR      32  28  84 CALM      30.45R
6HR MIN TEMP:  31; 6HR MAX TEMP:  38;

KALAMAZOO      FAIR      35  27  72 CALM      30.45R
6HR MIN TEMP:  31; 6HR MAX TEMP:  40;

LUDINGTON      FAIR      28  25  89 CALM      30.46R
6HR MIN TEMP:  23; 6HR MAX TEMP:  28;

MARSHALL       FAIR      38  24  56 SE5       30.46R WCI  35
6HR MIN TEMP:  29; 6HR MAX TEMP:  38;

MOUNT PLEASANT FAIR      35  27  75 CALM      30.46R
6HR MIN TEMP:  32; 6HR MAX TEMP:  38;

MUSKEGON       CLOUDY    33  26  75 CALM      30.47R
6HR MIN TEMP:  28; 6HR MAX TEMP:  33;

SOUTH HAVEN    FAIR      32  27  80 CALM      30.45R
$$
MIZ016>042-211300-
NORTHERN LOWER MICHIGAN

CITY           SKY/WX    TMP DP  RH WIND       PRES   REMARKS
ALPENA         FAIR      28  24  85 CALM      30.47R
6HR MIN TEMP:  24; 6HR MAX TEMP:  28;

BEAVER ISLAND  FAIR      36  22  57 SE3       30.44R
6HR MIN TEMP:  30; 6HR MAX TEMP:  36;

BELLAIRE       FAIR      28  25  86 CALM      30.47R
6HR MIN TEMP:  26; 6HR MAX TEMP:  28;

CADILLAC       FAIR      28  22  81 CALM      30.43S
CHARLEVOIX     FAIR      32  22  67 E5        30.48R WCI  27
6HR MIN TEMP:  29; 6HR MAX TEMP:  32;

FRANKFORT      FAIR      30  22  71 CALM      30.45S
GAYLORD        FAIR      30  20  66 CALM      30.44R
6HR MIN TEMP:  26; 6HR MAX TEMP:  31;

HARBOR SPRINGS FAIR      31  22  72 NE5       30.45S WCI  26
HOUGHTON LAKE  FAIR      30  26  85 CALM      30.46R
6HR MIN TEMP:  25; 6HR MAX TEMP:  30;

OSCODA         FAIR      29  23  78 CALM      30.48R
6HR MIN TEMP:  24; 6HR MAX TEMP:  30;

PELLSTON       FAIR      27  23  85 CALM      30.46R
6HR MIN TEMP:  25; 6HR MAX TEMP:  28;

ROGERS CITY    FAIR      36  15  42 SW5       30.47R WCI  32
TRAVERSE CITY  PTSUNNY   32  21  64 CALM      30.45R
6HR MIN TEMP:  29; 6HR MAX TEMP:  33;

$$
MIZ007>008-015-211300-
EASTERN UPPER MICHIGAN

CITY           SKY/WX    TMP DP  RH WIND       PRES   REMARKS
KINROSS        FAIR      32  23  69 CALM      30.45R
6HR MIN TEMP:  28; 6HR MAX TEMP:  33;

MACKINAC ISLAN FAIR      35  18  49 SW3       30.45R
6HR MIN TEMP:  30; 6HR MAX TEMP:  35;

NEWBERRY       FAIR      32  26  78 CALM      30.43R
6HR MIN TEMP:  27; 6HR MAX TEMP:  32;

S. S. MARIE    FAIR      32  21  64 E3        30.44R
6HR MIN TEMP:  29; 6HR MAX TEMP:  35;

MUNISING         N/A     31  25  78 S3        30.42R
6HR MIN TEMP:  28; 6HR MAX TEMP:  37;

$$
MIZ004>006-011>014-085-211300-
CENTRAL UPPER MICHIGAN

CITY           SKY/WX    TMP DP  RH WIND       PRES   REMARKS
MANISTIQUE     FAIR      32  31  95 S5        30.42R WCI  27
6HR MIN TEMP:  26; 6HR MAX TEMP:  32;

ESCANABA       FAIR      33  21  61 W7        30.42R WCI  27
6HR MIN TEMP:  27; 6HR MAX TEMP:  34;

MENOMINEE      FAIR      36  20  52 W5        30.44R WCI  32
6HR MIN TEMP:  35; 6HR MAX TEMP:  38;

SAWYER-GWINN   SUNNY     25  18  74 CALM      30.40R
$$
MIZ001>003-009>011-084-211300-
WESTERN UPPER MICHIGAN

CITY           SKY/WX    TMP DP  RH WIND       PRES   REMARKS
IRON MOUNTAIN  FAIR      30  22  72 CALM      30.40R
6HR MIN TEMP:  27; 6HR MAX TEMP:  33;

HOUGHTON       FAIR      34  13  41 NW9       30.39S WCI  27
6HR MIN TEMP:  24; 6HR MAX TEMP:  35;

COPPER HARBOR    N/A     33  16  49 W6        30.40S WCI  28
6HR MIN TEMP:  30; 6HR MAX TEMP:  38;

IRONWOOD       FAIR      24  21  88 CALM      30.42R
6HR MIN TEMP:  23; 6HR MAX TEMP:  30;

$$

ABBREVIATIONS USED IN REMARKS
   TC - TEMPERATURE IN CELSIUS
  WCI - WIND CHILL INDEX
   HX - HEAT INDEX
  VSB - VISIBILITY





USA.gov is the U.S. government's official web portal to all federal, state and local government web resources and services.